Weather History for KEMP - December, 2013

Change the Weather History Date:

Sunday, December 29, 2013

  Actual Average Record
Temperature  
Mean Temperature 24 °F 31 °F  
Max Temperature 39 °F 41 °F 68 °F (1999)
Min Temperature 8 °F 21 °F 8 °F (2013)
Degree Days  
Heating Degree Days 41 34  
Month to date heating degree days 1033 925  
Since 1 July heating degree days 2064 1865  
Cooling Degree Days 0 0  
Month to date cooling degree days 0 0  
Year to date cooling degree days 1375 1403  
Moisture  
Dew Point 7 °F    
Average Humidity 58    
Maximum Humidity 82    
Minimum Humidity 34    
Precipitation  
Precipitation 0.00 in 0.03 in 0.06 in (2006)
Month to date precipitation 0.50 1.30  
Year to date precipitation 33.43 36.34  
Sea Level Pressure  
Sea Level Pressure 30.28 in    
Wind  
Wind Speed 14 mph (NNW)    
Max Wind Speed 29 mph    
Max Gust Speed 36 mph    
Visibility 10 miles    
Events      
T = Trace of Precipitation, MM = Missing Value Source: NWS Daily Summary

Daily Weather History Graph

Daily Weather History Graph

Search for Another Location

Airport or City:

Trip Planner

Search our weather history database for the weather conditions in past years. The results will help you decide how hot, cold, wet, or windy it might be!

Date:

Astronomy

Dec. 29, 2013 Rise Set
Actual Time 7:41 AM CST 5:12 PM CST
Civil Twilight 7:11 AM CST 5:42 PM CST
Nautical Twilight 6:38 AM CST 6:15 PM CST
Astronomical Twilight 6:06 AM CST 6:47 PM CST
Moon 4:27 AM CST (12/29) 2:51 PM CST (12/29)
Length of Visible Light 10h 30m
Length of Day
9h 31m
Waning Crescent, 11% of the Moon is Illuminated
Dec 29
Waning Crescent
Jan 1
New
Jan 7
First Quarter
Jan 15
Full
Jan 23
Last Quarter

Hourly Weather History & Observations

Time (CST) Temp. Windchill Dew Point Humidity Pressure Visibility Wind Dir Wind Speed Gust Speed Precip Events Conditions
12:53 AM 37.0 °F 26.4 °F 30.0 °F 76% 30.01 in 10.0 mi North 20.7 mph 29.9 mph N/A   Overcast
1:01 AM 37.0 °F 27.7 °F 30.0 °F 76% 29.99 in 10.0 mi North 16.1 mph - N/A   Overcast
1:53 AM 33.1 °F 21.5 °F 26.1 °F 75% 30.05 in 10.0 mi North 19.6 mph 34.5 mph N/A   Overcast
2:53 AM 28.9 °F 16.5 °F 23.0 °F 78% 30.09 in 10.0 mi North 18.4 mph 29.9 mph N/A   Overcast
3:53 AM 23.0 °F 8.7 °F 15.1 °F 72% 30.14 in 10.0 mi North 18.4 mph 29.9 mph N/A   Overcast
4:53 AM 19.9 °F 4.3 °F 12.0 °F 71% 30.17 in 10.0 mi NNW 19.6 mph 28.8 mph N/A   Overcast
5:53 AM 19.0 °F 3.2 °F 10.0 °F 68% 30.21 in 10.0 mi NNW 19.6 mph - N/A   Overcast
6:53 AM 17.1 °F 2.5 °F 8.1 °F 68% 30.26 in 10.0 mi NNW 15.0 mph 28.8 mph N/A   Overcast
7:53 AM 16.0 °F 0.1 °F 9.0 °F 74% 30.30 in 10.0 mi NNW 17.3 mph 31.1 mph N/A   Overcast
8:53 AM 16.0 °F 0.1 °F 8.1 °F 71% 30.32 in 10.0 mi North 17.3 mph 29.9 mph N/A   Overcast
9:53 AM 17.1 °F 1.0 °F 7.0 °F 65% 30.35 in 10.0 mi NNW 18.4 mph 27.6 mph N/A   Overcast
10:50 AM 19.4 °F 4.5 °F 6.8 °F 58% 30.31 in 10.0 mi NNW 17.3 mph 33.4 mph N/A   Scattered Clouds
10:53 AM 19.0 °F 3.2 °F 6.1 °F 57% 30.36 in 10.0 mi North 19.6 mph 28.8 mph N/A   Partly Cloudy
11:53 AM 19.0 °F 4.5 °F 6.1 °F 57% 30.35 in 10.0 mi NNW 16.1 mph 26.5 mph N/A   Clear
12:53 PM 19.9 °F 6.7 °F 3.0 °F 48% 30.34 in 10.0 mi North 13.8 mph 25.3 mph N/A   Partly Cloudy
1:53 PM 23.0 °F 9.2 °F 1.9 °F 40% 30.33 in 10.0 mi NNW 17.3 mph 24.2 mph N/A   Clear
2:53 PM 19.0 °F 4.5 °F -5.1 °F 34% 30.36 in 10.0 mi NNW 16.1 mph 23.0 mph N/A   Overcast
3:53 PM 19.9 °F 7.3 °F -4.0 °F 35% 30.37 in 10.0 mi NNW 12.7 mph 21.9 mph N/A   Scattered Clouds
4:53 PM 19.0 °F 5.6 °F -6.0 °F 33% 30.37 in 10.0 mi North 13.8 mph - N/A   Clear
5:53 PM 17.1 °F 5.0 °F -5.1 °F 37% 30.40 in 10.0 mi North 10.4 mph - N/A   Clear
6:53 PM 15.1 °F 3.3 °F -4.0 °F 43% 30.40 in 10.0 mi North 9.2 mph - N/A   Clear
7:53 PM 12.0 °F 5.9 °F -0.9 °F 56% 30.40 in 10.0 mi NNW 3.5 mph - N/A   Clear
8:53 PM 10.9 °F 4.7 °F 1.0 °F 64% 30.39 in 10.0 mi NNW 3.5 mph - N/A   Clear
9:53 PM 10.9 °F - -0.0 °F 61% 30.38 in 10.0 mi Calm Calm - N/A   Clear
10:53 PM 10.0 °F - 1.9 °F 70% 30.37 in 10.0 mi Calm Calm - N/A   Clear
11:53 PM 8.1 °F -0.5 °F 1.9 °F 76% 30.35 in 10.0 mi NNW 4.6 mph - N/A   Clear